Weather in Mamlutka

Kazakhstan     54°56′22″N   68°32′40″E
temp.,
°C
wind,
m/s
gust,
m/s
humid.,
%
clouds,
%
prec.,
mm/h
press.,
hPa
HPBL,
m
2 march, tue
tue200:00−20wnw2210098 0.1 101720
03:00−21wsw239985 0.0 101720
06:00−20wsw239891 0.0 101754
09:00−19sw249893 0.1 1016111
12:00−16sw349584 0.1 1015262
15:00−14sw469397 0.0 1014344
18:00−15ssw369598 0.1 1013176
21:00−18ssw479740 0.0 1013101
3 march, wed
wed300:00−17ssw4119629 0.0 1012207
03:00−17ssw5129584 0.0 1011293
06:00−18ssw6129384 0.0 1010329
09:00−17ssw71294100 0.0 1008407
12:00−13ssw81391100 0.3 1008606
15:00−10ssw81493100 0.3 1007664
18:00−8ssw81489100 0.6 1007741
21:00−6sw81690100 0.1 1006698
4 march, thu
thu400:00−4sw71392100 0.1 1006662
03:00−4sw71395100 0.3 1004587
06:00−4ssw71395100 0.8 1003590
09:00−3ssw71295100 0.6 1001642
12:00−1ssw71296100 1.4 999825
15:000sw81298100 0.7 998911
18:00−1sw71296100 1.3 998790
21:00−4wsw71485100 0.6 999517
5 march, fri
fri500:00−6wsw7139277 0.8 1003626
03:00−11wsw6139050 0.0 1005290
06:00−13sw7149334 0.0 1007318
09:00−11sw81591100 0.0 1006519
12:00−7sw101792100 0.5 1006916
15:00−2sw111890100 0.3 10051147
18:00−1sw101594100 0.6 10061086
21:00−2sw91695100 0.7 1006963
6 march, sat
sat600:00−2sw101695100 1.6 10051000
03:00−2sw101793100 0.8 1003969
06:00−1sw111895100 1.4 10011054
09:00−4w11198485 0.3 1003822
12:00−6w9138476 0.3 1007714
15:00−7w711850 0.0 1010654
18:00−9wsw612880 0.0 1012565
21:00−13wsw5119471 0.0 1013247